SCP
0 0 1 1 1 0 0 0 0 0 0 0 0 0 0 0 0 0 0 0 0 0 0 0 0 0 -0 0 0 0 0 0 0 0 0 0 0 0 0 0 0 0 0 0 0 0 -0 -0 -0
0 1 1 1 0 0 0 0 0 0 0 0 0 0 0 0 0 0 0 0 0 0 0 0 0 -0 -0 0 0 0 0 0 0 0 0 0 0 0 0 0 0 0 0 0 0 0 -0 -0 -0
0 1 1 0 0 0 0 0 0 0 0 0 0 0 0 0 0 0 0 0 0 0 0 0 0 -0 -0 -0 0 0 0 0 0 0 0 0 0 0 0 0 0 0 0 0 0 0 0 0 0
0 0 0 0 0 0 0 0 0 0 0 0 0 0 0 0 0 0 0 0 0 0 0 0 -0 -0 -0 -0 -0 -0 -0 -0 -0 0 0 0 0 0 0 0 0 0 0 0 -0 -0 0 0 0
0 0 0 0 0 0 0 0 0 0 0 0 0 0 0 0 0 0 0 0 0 0 0 0 -0 -0 -0 -0 -0 -0 -0 -0 -0 -0 0 0 0 0 0 0 0 0 0 0 -0 -0 -0 -0 0
0 0 0 0 0 0 0 0 0 0 0 0 0 0 0 0 0 0 0 0 0 0 0 0 0 -0 -0 -0 -0 -0 -0 -0 -0 -0 -0 -0 -0 0 0 0 0 0 -0 -0 -0 -0 -0 -0 -0
0 0 0 0 0 0 0 0 0 0 0 0 0 0 0 0 0 0 0 0 0 0 0 0 0 0 0 0 -0 -0 -0 -0 -0 -0 -0 -0 -0 -0 -0 -0 -0 -0 -0 -0 -0 -0 -0 -0 -0
0 0 0 0 0 0 0 0 0 0 0 0 0 0 0 0 0 0 0 0 0 0 0 0 0 0 0 0 -0 -0 -0 -0 -0 -0 -0 -0 -0 -0 -0 -0 -0 -0 -0 -0 -0 -0 -0 -0 -0
0 0 0 0 0 0 0 0 0 0 0 0 0 0 0 0 0 0 0 0 0 0 0 0 0 0 0 0 0 -0 -0 -0 -0 -0 -0 -0 -0 -0 -0 -0 -0 -0 -0 -0 -0 -0 -0 -0 -0
0 0 0 0 0 0 0 0 0 0 0 0 0 0 0 0 0 0 0 0 0 0 0 0 0 0 0 0 0 0 -0 -0 -0 -0 -0 -0 -0 -0 -0 0 0 0 0 0 0 0 0 -0 -0
0 0 0 0 0 0 0 0 0 0 0 0 0 0 0 0 0 0 0 0 0 0 0 0 0 0 0 0 0 0 -0 -0 -0 -0 -0 -0 -0 -0 -0 0 0 0 0 0 0 0 0 0 -0
0 0 0 0 0 0 0 0 0 0 0 0 0 0 0 0 0 0 0 0 0 0 0 0 0 0 0 0 0 -0 -0 -0 -0 -0 -0 -0 -0 -0 -0 0 0 0 0 0 0 0 0 0 -0
0 0 0 0 0 0 0 0 0 0 0 0 0 0 0 0 0 0 0 0 0 0 0 0 0 -0 -0 -0 -0 -0 -0 -0 -0 -0 0 0 0 0 0 0 0 -0 -0 0 0 0 0 0 0
0 0 0 0 0 0 0 0 0 0 0 0 0 0 0 0 0 0 0 1 0 0 0 0 0 0 0 -0 -0 0 0 0 0 0 0 0 0 0 0 0 0 -0 -0 0 0 0 0 0 0
0 0 0 0 0 0 0 0 0 0 0 0 0 0 0 0 0 1 1 1 1 1 0 0 0 0 0 0 0 0 0 0 0 0 0 0 0 0 0 0 0 -0 0 0 0 0 0 0 0
0 0 0 0 0 0 0 0 0 0 0 0 0 0 1 1 1 1 1 1 1 1 1 0 0 0 0 0 0 0 0 0 0 0 0 0 0 0 0 0 0 0 0 0 0 0 0 0 0
0 0 0 0 0 0 0 0 0 0 0 0 1 1 1 1 1 1 1 1 1 1 1 0 0 0 0 0 0 0 0 0 0 0 0 0 0 0 0 0 0 0 0 0 0 0 0 0 0
0 0 0 0 0 0 0 0 0 0 0 0 1 1 1 1 1 1 1 1 1 1 1 1 0 0 0 0 0 0 0 -0 -0 0 0 0 0 0 0 0 0 0 0 0 0 0 0 0 0
0 0 0 0 0 0 0 0 0 0 0 0 1 1 1 1 1 2 1 1 1 1 1 1 1 0 0 0 0 0 0 0 0 0 0 0 0 0 0 0 0 0 0 0 0 0 0 0 0
0 0 0 0 0 0 0 0 0 0 0 0 1 1 1 1 2 2 2 1 1 1 1 1 1 1 0 0 0 0 0 0 0 0 0 0 0 0 0 0 0 0 0 0 0 0 0 0 0
0 0 0 0 0 0 0 0 0 0 0 0 1 1 1 1 2 2 2 1 1 1 1 1 1 1 0 0 0 0 0 0 0 0 0 0 0 0 0 0 0 0 0 0 0 0 0 0 0
0 0 0 0 0 0 0 0 0 0 0 0 0 1 1 1 1 2 2 1 1 1 1 1 1 1 0 0 0 0 0 0 0 0 0 0 0 0 0 0 0 0 0 0 0 0 0 0 0
0 0 0 0 0 0 0 0 0 0 0 0 0 0 1 1 1 1 1 1 1 1 1 1 1 1 1 1 0 0 0 0 0 0 0 0 0 0 0 0 0 0 0 0 0 0 0 0 0
0 0 0 0 0 0 0 0 0 0 0 0 0 0 1 1 1 1 2 1 1 1 1 1 1 1 1 1 1 1 1 0 0 0 0 0 0 0 0 0 0 0 0 0 0 0 0 0 0
0 0 0 0 0 0 0 0 0 0 0 0 0 0 0 1 1 2 2 1 1 1 1 1 2 2 1 1 1 1 1 0 0 0 0 0 0 0 0 0 0 0 0 0 0 0 0 0 0
0 0 0 0 0 0 0 0 0 0 0 0 0 0 0 1 1 1 1 1 1 1 1 2 2 2 1 1 1 1 1 1 1 1 0 0 0 0 0 0 0 0 0 0 0 0 0 0 0
0 0 0 0 0 0 0 0 0 0 0 0 0 0 0 1 1 1 1 1 1 1 1 2 2 2 2 1 1 1 1 1 1 1 1 1 1 1 1 1 1 0 0 0 0 0 0 0 0
0 0 0 0 0 0 0 0 0 0 0 0 0 0 1 1 1 1 1 1 1 1 1 2 2 2 2 1 1 1 1 1 1 1 1 1 1 1 1 1 1 1 0 0 0 0 0 0 0
0 0 0 0 0 0 0 0 0 0 0 0 0 0 1 1 1 1 1 1 1 1 2 2 2 2 2 1 1 1 1 1 1 1 1 1 1 1 1 1 1 1 0 0 0 0 0 0 0
0 0 0 0 0 0 0 0 0 0 0 0 0 0 1 1 1 1 1 1 1 1 1 2 2 2 2 2 1 1 1 1 1 1 1 1 1 1 1 1 1 1 0 0 0 0 0 0 0
Wind_Speed
8 10 8 7 2 8 16 16 15 15 16 15 16 16 19 18 14 13 11 14 17 17 15 13 12 12 12 12 12 12 12 12 12 12 12 12 12 12 13 13 13 14 14 14 13 13 13 12 12
9 11 9 5 5 11 15 14 15 14 14 15 18 19 19 19 16 15 13 13 16 16 14 13 12 12 11 12 11 11 11 11 11 11 11 11 12 12 12 13 13 13 13 13 13 13 12 12 11
11 13 6 3 12 13 15 14 13 13 13 15 18 17 15 14 15 13 12 14 16 16 15 13 12 12 11 11 11 11 11 11 11 11 11 11 12 12 12 12 13 13 12 12 12 12 12 11 10
9 6 2 9 17 16 15 13 12 13 13 14 14 13 15 15 15 14 13 14 16 16 15 13 12 12 11 11 11 11 11 11 11 11 11 11 11 12 12 12 12 12 12 12 12 11 11 10 9
8 2 7 13 17 15 14 13 13 14 15 17 18 17 16 16 15 14 12 12 15 16 15 14 12 12 11 11 11 11 10 10 11 11 11 11 11 11 12 12 12 12 11 11 11 10 10 9 7
5 1 7 13 16 15 14 13 14 15 15 18 17 17 14 13 12 12 11 11 13 15 16 13 12 12 11 11 10 10 10 10 10 10 11 11 11 11 11 11 11 11 10 10 10 9 8 7 5
3 4 11 16 13 14 14 13 13 13 13 15 16 15 13 12 11 11 10 10 12 14 14 13 12 11 11 10 10 10 10 9 9 9 9 10 10 10 10 10 10 10 9 9 9 8 7 6 4
1 4 12 14 14 15 14 15 14 13 11 11 13 13 13 12 11 11 10 9 11 11 11 10 11 11 10 10 10 9 9 9 8 8 8 8 9 9 10 9 8 8 8 8 8 7 7 5 3
3 4 11 15 13 14 14 14 14 13 13 15 16 18 16 14 12 11 10 9 8 9 8 8 9 8 9 10 10 9 9 8 7 7 8 7 5 6 6 9 8 8 7 6 7 7 6 5 4
5 8 14 15 14 13 13 14 14 13 14 17 17 17 15 13 11 10 10 9 8 7 7 7 7 6 5 6 7 5 5 6 4 3 5 4 2 3 7 8 8 7 7 6 6 7 6 5 4
10 12 14 14 14 12 12 12 14 13 14 16 17 16 14 13 10 9 9 9 8 6 6 8 7 4 4 4 4 2 3 3 3 3 3 2 3 3 5 4 5 5 6 4 5 6 5 4 2
12 12 12 12 11 11 12 12 14 14 16 17 16 15 13 12 10 9 9 9 8 5 5 7 7 4 4 3 2 2 2 2 2 2 1 2 1 1 2 2 3 3 2 2 2 2 2 2 1
10 10 11 10 10 10 11 13 16 16 17 17 16 14 13 11 10 9 9 8 8 6 5 6 6 5 3 3 2 2 2 2 3 2 2 2 1 1 1 1 1 1 1 2 1 1 1 1 1
7 8 10 11 11 8 9 10 14 16 17 16 15 12 11 11 11 10 9 8 7 6 6 5 5 5 3 2 1 2 1 2 2 2 2 1 1 2 1 0 0 0 1 1 1 1 1 0 0
4 5 6 9 11 11 7 7 12 15 16 15 13 12 11 11 10 9 9 7 7 6 6 5 5 5 3 2 1 1 0 2 2 2 2 1 1 1 1 1 1 0 1 1 1 1 1 2 2
6 5 4 5 9 13 7 5 9 13 15 13 13 12 11 9 10 9 9 7 7 7 6 4 4 6 4 2 1 1 0 2 2 2 2 1 1 1 0 1 1 1 1 1 1 1 1 1 1
7 6 7 6 8 11 9 9 10 13 14 13 12 12 12 10 9 9 10 8 7 6 5 4 3 5 5 4 2 1 1 1 0 1 1 1 1 1 1 1 0 1 1 1 1 1 1 1 1
4 6 8 7 8 7 10 12 14 13 12 14 13 12 12 11 10 10 9 9 7 7 5 4 4 3 3 3 2 1 1 1 1 1 1 1 1 1 1 1 1 2 1 1 1 1 2 2 2
5 4 5 5 5 3 7 11 13 12 11 12 12 12 12 11 11 10 9 9 8 7 5 5 4 3 2 2 2 2 2 2 2 2 3 3 2 1 1 1 1 1 1 1 2 2 2 2 2
6 4 3 5 5 4 3 5 7 8 8 10 12 11 12 12 11 10 9 9 9 8 6 5 4 4 3 2 1 1 1 1 2 1 1 2 2 2 2 2 1 1 1 1 2 1 1 2 2
8 4 2 2 5 6 2 2 3 5 5 7 10 11 12 13 13 12 10 9 8 8 7 5 4 4 3 3 2 1 1 0 0 1 1 1 2 2 1 1 2 2 1 1 2 2 3 2 2
8 3 2 4 6 3 4 2 3 5 7 8 10 10 12 13 13 12 11 9 8 8 8 6 5 4 3 2 2 2 1 1 0 1 1 1 1 2 2 2 2 2 1 2 3 2 2 2 2
6 3 6 8 8 5 3 4 3 5 7 9 10 10 10 12 13 12 11 9 9 8 8 7 6 5 3 2 2 1 0 0 0 1 1 1 1 1 2 2 2 2 2 2 2 2 2 2 2
6 5 8 10 9 7 5 3 4 5 6 7 10 10 10 12 13 12 12 10 8 8 8 8 6 5 4 3 2 1 0 1 1 1 0 0 0 0 1 1 1 1 1 2 2 2 2 2 2
9 8 7 8 7 5 4 2 5 8 8 9 10 11 11 13 13 13 12 11 9 8 8 8 7 6 4 4 2 1 1 0 1 1 0 1 0 1 1 0 0 1 1 1 2 1 2 2 2
11 12 10 6 3 2 4 0 4 9 10 10 11 11 11 13 12 13 12 11 10 9 8 8 8 6 5 4 3 2 1 1 0 0 1 1 1 1 1 1 1 1 1 1 1 1 1 1 2
12 12 15 12 9 4 3 3 5 10 11 11 12 11 10 12 13 13 13 12 11 9 8 9 8 7 5 5 4 3 2 1 1 1 1 1 1 1 2 2 1 1 2 2 1 1 1 1 1
14 12 8 8 6 5 4 6 6 8 10 11 11 12 12 12 12 12 12 12 11 10 9 9 8 7 5 5 3 4 3 2 1 1 1 2 2 2 2 2 2 2 2 2 1 1 1 1 1
15 14 10 7 7 6 3 1 6 5 7 10 11 12 12 12 11 11 10 11 11 11 11 9 8 8 6 5 4 3 3 3 2 1 1 2 2 2 2 2 3 3 3 3 2 2 2 2 3
15 15 13 8 6 7 5 3 9 7 7 9 10 9 10 11 11 10 11 10 10 10 10 9 9 8 7 6 5 4 3 2 2 2 2 2 2 2 2 2 3 3 3 3 3 3 3 3 3
Wind_Direction
229 232 229 245 212 76 72 68 69 69 68 61 59 67 59 57 73 90 102 100 103 106 106 96 87 87 86 85 82 81 80 80 81 82 83 85 85 86 89 91 92 95 96 97 98 97 97 98 101
250 239 233 239 85 80 78 75 72 71 75 77 72 74 73 72 82 96 100 100 102 103 100 94 92 89 88 88 85 84 83 82 82 83 84 86 87 88 89 93 94 96 98 99 99 98 98 100 104
256 253 262 89 74 77 81 81 82 81 81 83 76 67 68 84 89 101 112 107 98 97 98 98 96 92 90 88 86 85 84 83 83 84 86 88 88 89 91 94 96 96 98 100 100 98 99 100 105
257 240 171 82 80 78 83 90 93 91 86 87 87 78 69 83 99 109 114 111 111 112 106 103 100 96 94 92 90 88 87 85 85 85 88 90 90 90 92 95 97 98 100 101 101 101 100 102 106
244 253 92 86 84 84 84 87 86 84 84 84 86 90 88 91 104 110 113 114 113 111 112 111 106 100 96 95 93 91 90 88 88 90 92 93 93 93 94 97 98 99 100 101 103 103 104 105 107
255 141 92 88 88 89 88 88 88 91 97 100 100 100 100 110 115 117 118 113 114 115 113 117 115 110 104 100 98 96 94 94 94 96 97 98 99 98 98 100 100 100 100 103 106 108 109 111 112
271 92 98 97 94 91 90 91 89 91 96 106 114 110 118 122 120 116 109 108 110 112 120 132 132 125 119 112 108 106 104 104 103 104 104 107 108 108 107 106 105 105 105 107 111 114 117 120 125
77 95 98 98 99 94 91 90 91 94 91 109 122 115 125 127 126 116 113 108 105 110 118 130 133 135 138 130 125 122 121 119 120 121 122 123 124 124 123 118 112 113 114 117 123 123 128 138 150
88 83 92 98 101 102 102 101 98 94 89 76 84 108 122 132 127 126 120 108 97 98 109 121 119 134 138 137 136 143 141 140 144 147 149 154 160 140 139 116 127 128 132 135 139 143 147 159 183
95 89 87 93 101 106 110 113 115 110 101 96 99 110 126 132 132 131 127 120 112 110 118 105 108 114 121 121 135 149 152 150 178 146 167 180 157 134 122 132 142 148 153 158 165 166 173 196 195
91 89 93 99 105 109 111 115 120 118 116 119 123 130 136 135 136 131 122 118 116 121 108 105 96 97 94 107 140 136 129 148 165 146 155 133 128 132 132 152 157 170 176 186 172 188 203 214 214
96 94 98 103 111 111 108 104 97 98 108 120 128 135 139 144 139 132 122 118 122 117 112 106 103 85 56 60 86 129 131 146 125 124 127 111 114 122 133 158 167 177 180 169 167 194 192 179 142
104 110 112 112 101 94 96 99 100 103 111 121 131 139 145 140 134 126 120 119 121 120 107 93 98 96 73 47 355 76 90 98 101 97 62 72 112 104 103 82 91 171 155 155 166 161 137 160 193
113 122 122 116 111 106 98 105 110 116 122 130 138 146 144 135 132 126 126 128 131 134 127 122 118 113 112 105 32 14 62 87 100 109 101 50 49 85 91 122 142 171 131 131 165 171 173 173 355
135 126 121 134 135 114 103 115 121 131 135 141 146 147 138 135 132 135 135 139 140 137 130 135 135 126 137 142 165 199 167 119 96 99 107 97 68 86 118 181 229 225 170 149 172 231 220 198 205
172 161 158 163 141 131 137 130 140 146 146 149 152 147 143 138 144 142 137 140 140 139 138 152 151 140 153 158 173 243 310 86 97 101 112 118 102 136 252 214 218 269 238 179 187 225 246 243 220
190 173 184 183 154 141 146 156 166 162 156 156 158 154 151 151 154 144 143 145 140 137 142 147 134 142 159 164 174 190 115 69 146 147 143 158 206 218 246 279 216 259 267 238 233 174 222 261 267
230 182 192 182 151 156 153 157 160 166 167 161 162 159 157 160 158 147 146 145 141 139 142 146 145 147 154 161 175 193 183 208 229 183 161 181 230 230 260 248 238 262 257 257 248 218 227 242 249
263 197 193 143 146 191 159 155 156 165 171 161 162 163 161 159 154 148 150 150 149 146 150 154 154 149 160 172 186 192 199 213 216 210 189 198 218 228 236 290 267 272 265 252 248 229 235 240 225
243 223 195 144 149 229 175 130 149 158 171 162 161 158 159 154 152 154 155 158 158 154 159 157 160 163 178 174 186 194 192 204 194 215 161 196 203 211 227 228 248 252 259 259 265 245 245 264 238
240 233 223 189 207 220 179 117 139 154 181 168 158 162 161 160 157 158 162 164 161 156 158 152 153 152 165 166 181 191 158 235 140 177 185 213 208 203 238 236 256 265 251 243 254 246 236 243 265
249 256 269 254 253 248 223 149 251 182 194 182 169 167 161 160 157 158 160 163 157 153 149 138 142 141 151 165 195 204 177 182 197 189 161 205 219 216 225 229 240 258 262 251 255 226 237 236 250
265 309 282 268 265 257 212 149 202 169 202 183 166 154 156 152 152 153 154 153 153 155 149 144 140 143 147 155 163 190 234 181 176 122 127 220 216 219 225 229 239 249 258 259 266 280 261 250 252
255 258 268 268 269 260 240 194 149 172 194 165 149 146 153 146 144 145 146 144 150 153 148 143 139 139 145 155 155 152 255 24 30 32 62 259 197 224 226 222 231 245 255 268 264 262 259 260 264
235 241 245 243 237 250 249 210 153 165 159 149 146 148 150 144 143 145 146 149 155 154 147 140 139 142 146 149 151 151 158 114 24 337 319 332 20 47 14 0 277 280 269 269 271 266 261 265 263
221 242 252 264 280 265 284 73 140 131 129 138 138 140 145 144 145 146 148 152 156 154 149 141 140 143 149 151 151 136 133 181 207 285 350 16 15 46 14 18 12 329 306 300 296 304 275 277 275
232 232 255 263 260 235 189 147 136 142 142 142 139 138 144 146 147 150 154 157 156 154 148 142 139 142 147 149 144 135 130 108 46 75 40 34 20 23 39 33 24 4 355 345 18 5 343 2 330
250 251 255 263 289 286 216 186 175 162 150 147 145 146 144 147 150 153 156 155 152 150 143 140 139 144 147 150 157 149 144 142 118 70 57 43 41 31 39 27 29 29 17 11 23 27 6 15 8
223 243 257 268 267 274 279 62 120 142 166 152 150 147 147 150 148 148 148 145 147 149 150 150 147 149 151 149 141 133 140 150 142 113 84 66 55 50 34 23 24 35 35 26 30 34 28 30 24
230 230 234 243 258 279 276 144 134 158 172 149 143 139 145 144 143 146 145 143 148 153 153 152 154 155 156 150 142 142 138 131 124 108 85 78 80 72 54 48 38 36 48 46 47 40 39 37 30